Year,Month,Day,Hour,Minute,Value (Times are PST for temperature in C)
2016,04,19,00,00,12.80
2016,04,19,00,01,12.80
2016,04,19,00,02,12.80
2016,04,19,00,03,12.80
2016,04,19,00,04,12.80
2016,04,19,00,05,12.80
2016,04,19,00,06,12.70
2016,04,19,00,07,12.70
2016,04,19,00,08,12.60
2016,04,19,00,09,12.60
2016,04,19,00,10,12.50
2016,04,19,00,11,12.40
2016,04,19,00,12,12.30
2016,04,19,00,13,12.30
2016,04,19,00,14,12.30
2016,04,19,00,15,12.20
2016,04,19,00,16,12.10
2016,04,19,00,17,12.10
2016,04,19,00,18,12.00
2016,04,19,00,19,12.00
2016,04,19,00,20,11.90
2016,04,19,00,21,11.80
2016,04,19,00,22,11.80
2016,04,19,00,23,11.80
2016,04,19,00,24,11.70
2016,04,19,00,25,11.60
2016,04,19,00,26,11.60
2016,04,19,00,27,11.60
2016,04,19,00,28,11.50
2016,04,19,00,29,11.50
2016,04,19,00,30,11.50
2016,04,19,00,31,11.50
2016,04,19,00,32,11.40
2016,04,19,00,33,11.40
2016,04,19,00,34,11.40
2016,04,19,00,35,11.40
2016,04,19,00,36,11.40
2016,04,19,00,37,11.30
2016,04,19,00,38,11.30
2016,04,19,00,39,11.30
2016,04,19,00,40,11.30
2016,04,19,00,41,11.20
2016,04,19,00,42,11.20
2016,04,19,00,43,11.20
2016,04,19,00,44,11.10
2016,04,19,00,45,11.10
2016,04,19,00,46,11.10
2016,04,19,00,47,11.10
2016,04,19,00,48,11.10
2016,04,19,00,49,11.10
2016,04,19,00,50,11.00
2016,04,19,00,51,11.00
2016,04,19,00,52,11.00
2016,04,19,00,53,11.10
2016,04,19,00,54,11.00
2016,04,19,00,55,11.00
2016,04,19,00,56,11.00
2016,04,19,00,57,11.10
2016,04,19,00,58,11.10
2016,04,19,00,59,11.20
2016,04,19,01,00,11.20
2016,04,19,01,01,11.30
2016,04,19,01,02,11.50
2016,04,19,01,03,11.60
2016,04,19,01,04,11.70
2016,04,19,01,05,11.80
2016,04,19,01,06,11.80
2016,04,19,01,07,11.90
2016,04,19,01,08,11.90
2016,04,19,01,09,11.90
2016,04,19,01,10,11.80
2016,04,19,01,11,11.80
2016,04,19,01,12,11.80
2016,04,19,01,13,11.80
2016,04,19,01,14,11.80
2016,04,19,01,15,11.80
2016,04,19,01,16,11.80
2016,04,19,01,17,11.80
2016,04,19,01,18,11.70
2016,04,19,01,19,11.70
2016,04,19,01,20,11.70
2016,04,19,01,21,11.70
2016,04,19,01,22,11.70
2016,04,19,01,23,11.70
2016,04,19,01,24,11.70
2016,04,19,01,25,11.70
2016,04,19,01,26,11.70
2016,04,19,01,27,11.60
2016,04,19,01,28,11.60
2016,04,19,01,29,11.60
2016,04,19,01,30,11.60
2016,04,19,01,31,11.50
2016,04,19,01,32,11.50
2016,04,19,01,33,11.40
2016,04,19,01,34,11.40
2016,04,19,01,35,11.40
2016,04,19,01,36,11.40
2016,04,19,01,37,11.30
2016,04,19,01,38,11.30
2016,04,19,01,39,11.30
2016,04,19,01,40,11.30
2016,04,19,01,41,11.30
2016,04,19,01,42,11.30
2016,04,19,01,43,11.20
2016,04,19,01,44,11.20
2016,04,19,01,45,11.20
2016,04,19,01,46,11.20
2016,04,19,01,47,11.20
2016,04,19,01,48,11.20
2016,04,19,01,49,11.20
2016,04,19,01,50,11.10
2016,04,19,01,51,11.10
2016,04,19,01,52,11.10
2016,04,19,01,53,11.00
2016,04,19,01,54,11.00
2016,04,19,01,55,11.00
2016,04,19,01,56,10.90
2016,04,19,01,57,10.90
2016,04,19,01,58,10.90
2016,04,19,01,59,10.80
2016,04,19,02,00,10.80
2016,04,19,02,01,10.80
2016,04,19,02,02,10.80
2016,04,19,02,03,10.80
2016,04,19,02,04,10.70
2016,04,19,02,05,10.70
2016,04,19,02,06,10.70
2016,04,19,02,07,10.70
2016,04,19,02,08,10.70
2016,04,19,02,09,10.70
2016,04,19,02,10,10.60
2016,04,19,02,11,10.60
2016,04,19,02,12,10.50
2016,04,19,02,13,10.50
2016,04,19,02,14,10.50
2016,04,19,02,15,10.50
2016,04,19,02,16,10.40
2016,04,19,02,17,10.40
2016,04,19,02,18,10.40
2016,04,19,02,19,10.40
2016,04,19,02,20,10.30
2016,04,19,02,21,10.30
2016,04,19,02,22,10.30
2016,04,19,02,23,10.30
2016,04,19,02,24,10.20
2016,04,19,02,25,10.20
2016,04,19,02,26,10.20
2016,04,19,02,27,10.20
2016,04,19,02,28,10.20
2016,04,19,02,29,10.10
2016,04,19,02,30,10.10
2016,04,19,02,31,10.10
2016,04,19,02,32,10.10
2016,04,19,02,33,10.10
2016,04,19,02,34,10.00
2016,04,19,02,35,10.00
2016,04,19,02,36,10.00
2016,04,19,02,37,10.00
2016,04,19,02,38,9.90
2016,04,19,02,39,9.90
2016,04,19,02,40,9.90
2016,04,19,02,41,9.90
2016,04,19,02,42,9.90
2016,04,19,02,43,9.90
2016,04,19,02,44,9.90
2016,04,19,02,45,9.90
2016,04,19,02,46,9.90
2016,04,19,02,47,9.90
2016,04,19,02,48,9.90
2016,04,19,02,49,9.90
2016,04,19,02,50,9.90
2016,04,19,02,51,9.90
2016,04,19,02,52,9.90
2016,04,19,02,53,9.90
2016,04,19,02,54,10.00
2016,04,19,02,55,10.00
2016,04,19,02,56,10.10
2016,04,19,02,57,10.10
2016,04,19,02,58,10.10
2016,04,19,02,59,10.10
2016,04,19,03,00,10.20
2016,04,19,03,01,10.20
2016,04,19,03,02,10.20
2016,04,19,03,03,10.20
2016,04,19,03,04,10.20
2016,04,19,03,05,10.20
2016,04,19,03,06,10.20
2016,04,19,03,07,10.20
2016,04,19,03,08,10.30
2016,04,19,03,09,10.30
2016,04,19,03,10,10.40
2016,04,19,03,11,10.40
2016,04,19,03,12,10.40
2016,04,19,03,13,10.40
2016,04,19,03,14,10.40
2016,04,19,03,15,10.40
2016,04,19,03,16,10.40
2016,04,19,03,17,10.40
2016,04,19,03,18,10.40
2016,04,19,03,19,10.40
2016,04,19,03,20,10.40
2016,04,19,03,21,10.40
2016,04,19,03,22,10.40
2016,04,19,03,23,10.50
2016,04,19,03,24,10.50
2016,04,19,03,25,10.50
2016,04,19,03,26,10.50
2016,04,19,03,27,10.50
2016,04,19,03,28,10.50
2016,04,19,03,29,10.50
2016,04,19,03,30,10.50
2016,04,19,03,31,10.50
2016,04,19,03,32,10.40
2016,04,19,03,33,10.40
2016,04,19,03,34,10.40
2016,04,19,03,35,10.30
2016,04,19,03,36,10.30
2016,04,19,03,37,10.30
2016,04,19,03,38,10.30
2016,04,19,03,39,10.20
2016,04,19,03,40,10.20
2016,04,19,03,41,10.10
2016,04,19,03,42,10.10
2016,04,19,03,43,10.00
2016,04,19,03,44,10.00
2016,04,19,03,45,9.90
2016,04,19,03,46,9.90
2016,04,19,03,47,9.80
2016,04,19,03,48,9.80
2016,04,19,03,49,9.80
2016,04,19,03,50,9.80
2016,04,19,03,51,9.80
2016,04,19,03,52,9.80
2016,04,19,03,53,9.80
2016,04,19,03,54,9.80
2016,04,19,03,55,9.80
2016,04,19,03,56,9.80
2016,04,19,03,57,9.80
2016,04,19,03,58,9.70
2016,04,19,03,59,9.70
2016,04,19,04,00,9.70
2016,04,19,04,01,9.70
2016,04,19,04,02,9.70
2016,04,19,04,03,9.70
2016,04,19,04,04,9.70
2016,04,19,04,05,9.60
2016,04,19,04,06,9.60
2016,04,19,04,07,9.60
2016,04,19,04,08,9.60
2016,04,19,04,09,9.60
2016,04,19,04,10,9.60
2016,04,19,04,11,9.60
2016,04,19,04,12,9.50
2016,04,19,04,13,9.50
2016,04,19,04,14,9.50
2016,04,19,04,15,9.50
2016,04,19,04,16,9.40
2016,04,19,04,17,9.40
2016,04,19,04,18,9.40
2016,04,19,04,19,9.40
2016,04,19,04,20,9.40
2016,04,19,04,21,9.40
2016,04,19,04,22,9.40
2016,04,19,04,23,9.40
2016,04,19,04,24,9.40
2016,04,19,04,25,9.30
2016,04,19,04,26,9.30
2016,04,19,04,27,9.30
2016,04,19,04,28,9.30
2016,04,19,04,29,9.40
2016,04,19,04,30,9.40
2016,04,19,04,31,9.50
2016,04,19,04,32,9.50
2016,04,19,04,33,9.50
2016,04,19,04,34,9.50
2016,04,19,04,35,9.60
2016,04,19,04,36,9.60
2016,04,19,04,37,9.70
2016,04,19,04,38,9.70
2016,04,19,04,39,9.70
2016,04,19,04,40,9.70
2016,04,19,04,41,9.70
2016,04,19,04,42,9.70
2016,04,19,04,43,9.70
2016,04,19,04,44,9.70
2016,04,19,04,45,9.70
2016,04,19,04,46,9.60
2016,04,19,04,47,9.60
2016,04,19,04,48,9.70
2016,04,19,04,49,9.70
2016,04,19,04,50,9.60
2016,04,19,04,51,9.60
2016,04,19,04,52,9.60
2016,04,19,04,53,9.60
2016,04,19,04,54,9.50
2016,04,19,04,55,9.60
2016,04,19,04,56,9.60
2016,04,19,04,57,9.50
2016,04,19,04,58,9.50
2016,04,19,04,59,9.50
2016,04,19,05,00,9.40
2016,04,19,05,01,9.40
2016,04,19,05,02,9.40
2016,04,19,05,03,9.40
2016,04,19,05,04,9.40
2016,04,19,05,05,9.40
2016,04,19,05,06,9.50
2016,04,19,05,07,9.50
2016,04,19,05,08,9.50
2016,04,19,05,09,9.50
2016,04,19,05,10,9.60
2016,04,19,05,11,9.60
2016,04,19,05,12,9.60
2016,04,19,05,13,9.60
2016,04,19,05,14,9.60
2016,04,19,05,15,9.50
2016,04,19,05,16,9.50
2016,04,19,05,17,9.40
2016,04,19,05,18,9.40
2016,04,19,05,19,9.40
2016,04,19,05,20,9.30
2016,04,19,05,21,9.30
2016,04,19,05,22,9.20
2016,04,19,05,23,9.20
2016,04,19,05,24,9.20
2016,04,19,05,25,9.20
2016,04,19,05,26,9.20
2016,04,19,05,27,9.20
2016,04,19,05,28,9.20
2016,04,19,05,29,9.20
2016,04,19,05,30,9.10
2016,04,19,05,31,9.10
2016,04,19,05,32,9.10
2016,04,19,05,33,9.10
2016,04,19,05,34,9.10
2016,04,19,05,35,9.10
2016,04,19,05,36,9.10
2016,04,19,05,37,9.10
2016,04,19,05,38,9.10
2016,04,19,05,39,9.10
2016,04,19,05,40,9.10
2016,04,19,05,41,9.10
2016,04,19,05,42,9.10
2016,04,19,05,43,9.10
2016,04,19,05,44,9.10
2016,04,19,05,45,9.10
2016,04,19,05,46,9.10
2016,04,19,05,47,9.10
2016,04,19,05,48,9.10
2016,04,19,05,49,9.10
2016,04,19,05,50,9.00
2016,04,19,05,51,9.00
2016,04,19,05,52,9.00
2016,04,19,05,53,9.00
2016,04,19,05,54,9.00
2016,04,19,05,55,9.00
2016,04,19,05,56,9.00
2016,04,19,05,57,9.10
2016,04,19,05,58,9.10
2016,04,19,05,59,9.10
2016,04,19,06,00,9.10
2016,04,19,06,01,9.00
2016,04,19,06,02,9.00
2016,04,19,06,03,9.00
2016,04,19,06,04,8.90
2016,04,19,06,05,8.90
2016,04,19,06,06,8.90
2016,04,19,06,07,8.90
2016,04,19,06,08,8.90
2016,04,19,06,09,9.00
2016,04,19,06,10,9.00
2016,04,19,06,11,9.00
2016,04,19,06,12,9.10
2016,04,19,06,13,9.10
2016,04,19,06,14,9.10
2016,04,19,06,15,9.10
2016,04,19,06,16,9.10
2016,04,19,06,17,9.10
2016,04,19,06,18,9.10
2016,04,19,06,19,9.10
2016,04,19,06,20,9.10
2016,04,19,06,21,9.10
2016,04,19,06,22,9.10
2016,04,19,06,23,9.10
2016,04,19,06,24,9.10
2016,04,19,06,25,9.00
2016,04,19,06,26,9.00
2016,04,19,06,27,9.00
2016,04,19,06,28,9.00
2016,04,19,06,29,9.00
2016,04,19,06,30,9.00
2016,04,19,06,31,9.00
2016,04,19,06,32,9.00
2016,04,19,06,33,9.00
2016,04,19,06,34,9.00
2016,04,19,06,35,9.00
2016,04,19,06,36,9.00
2016,04,19,06,37,9.00
2016,04,19,06,38,9.00
2016,04,19,06,39,9.00
2016,04,19,06,40,8.90
2016,04,19,06,41,8.90
2016,04,19,06,42,8.90
2016,04,19,06,43,8.90
2016,04,19,06,44,8.90
2016,04,19,06,45,8.80
2016,04,19,06,46,8.80
2016,04,19,06,47,8.80
2016,04,19,06,48,8.80
2016,04,19,06,49,8.80
2016,04,19,06,50,8.80
2016,04,19,06,51,8.80
2016,04,19,06,52,8.80
2016,04,19,06,53,8.80
2016,04,19,06,54,8.80
2016,04,19,06,55,8.80
2016,04,19,06,56,8.90
2016,04,19,06,57,8.90
2016,04,19,06,58,8.90
2016,04,19,06,59,8.90
2016,04,19,07,00,8.90
2016,04,19,07,01,9.00
2016,04,19,07,02,9.00
2016,04,19,07,03,9.00
2016,04,19,07,04,9.10
2016,04,19,07,05,9.10
2016,04,19,07,06,9.20
2016,04,19,07,07,9.20
2016,04,19,07,08,9.20
2016,04,19,07,09,9.30
2016,04,19,07,10,9.30
2016,04,19,07,11,9.30
2016,04,19,07,12,9.30
2016,04,19,07,13,9.30
2016,04,19,07,14,9.40
2016,04,19,07,15,9.40
2016,04,19,07,16,9.40
2016,04,19,07,17,9.50
2016,04,19,07,18,9.50
2016,04,19,07,19,9.50
2016,04,19,07,20,9.50
2016,04,19,07,21,9.60
2016,04,19,07,22,9.60
2016,04,19,07,23,9.60
2016,04,19,07,24,9.60
2016,04,19,07,25,9.70
2016,04,19,07,26,9.70
2016,04,19,07,27,9.70
2016,04,19,07,28,9.70
2016,04,19,07,29,9.70
2016,04,19,07,30,9.80
2016,04,19,07,31,9.80
2016,04,19,07,32,9.80
2016,04,19,07,33,9.80
2016,04,19,07,34,9.90
2016,04,19,07,35,9.90
2016,04,19,07,36,9.90
2016,04,19,07,37,10.00
2016,04,19,07,38,10.00
2016,04,19,07,39,10.10
2016,04,19,07,40,10.10
2016,04,19,07,41,10.10
2016,04,19,07,42,10.20
2016,04,19,07,43,10.20
2016,04,19,07,44,10.30
2016,04,19,07,45,10.30
2016,04,19,07,46,10.40
2016,04,19,07,47,10.50
2016,04,19,07,48,10.60
2016,04,19,07,49,10.60
2016,04,19,07,50,10.70
2016,04,19,07,51,10.80
2016,04,19,07,52,10.80
2016,04,19,07,53,10.90
2016,04,19,07,54,11.00
2016,04,19,07,55,11.00
2016,04,19,07,56,11.10
2016,04,19,07,57,11.10
2016,04,19,07,58,11.20
2016,04,19,07,59,11.20
2016,04,19,08,00,11.20
2016,04,19,08,01,11.30
2016,04,19,08,02,11.30
2016,04,19,08,03,11.40
2016,04,19,08,04,11.50
2016,04,19,08,05,11.60
2016,04,19,08,06,11.60
2016,04,19,08,07,11.80
2016,04,19,08,08,11.90
2016,04,19,08,09,12.00
2016,04,19,08,10,12.00
2016,04,19,08,11,12.10
2016,04,19,08,12,12.20
2016,04,19,08,13,12.30
2016,04,19,08,14,12.40
2016,04,19,08,15,12.40
2016,04,19,08,16,12.50
2016,04,19,08,17,12.50
2016,04,19,08,18,12.50
2016,04,19,08,19,12.60
2016,04,19,08,20,12.70
2016,04,19,08,21,12.80
2016,04,19,08,22,12.80
2016,04,19,08,23,12.80
2016,04,19,08,24,12.80
2016,04,19,08,25,12.90
2016,04,19,08,26,12.90
2016,04,19,08,27,12.90
2016,04,19,08,28,12.90
2016,04,19,08,29,12.90
2016,04,19,08,30,12.90
2016,04,19,08,31,13.00
2016,04,19,08,32,13.00
2016,04,19,08,33,13.10
2016,04,19,08,34,13.10
2016,04,19,08,35,13.10
2016,04,19,08,36,13.20
2016,04,19,08,37,13.20
2016,04,19,08,38,13.20
2016,04,19,08,39,13.20
2016,04,19,08,40,13.30
2016,04,19,08,41,13.30
2016,04,19,08,42,13.30
2016,04,19,08,43,13.30
2016,04,19,08,44,13.30
2016,04,19,08,45,13.30
2016,04,19,08,46,13.30
2016,04,19,08,47,13.30
2016,04,19,08,48,13.30
2016,04,19,08,49,13.30
2016,04,19,08,50,13.30
2016,04,19,08,51,13.30
2016,04,19,08,52,13.30
2016,04,19,08,53,13.40
2016,04,19,08,54,13.40
2016,04,19,08,55,13.40
2016,04,19,08,56,13.40
2016,04,19,08,57,13.40
2016,04,19,08,58,13.40
2016,04,19,08,59,13.40
2016,04,19,09,00,13.50
2016,04,19,09,01,13.50
2016,04,19,09,02,13.50
2016,04,19,09,03,13.60
2016,04,19,09,04,13.60
2016,04,19,09,05,13.70
2016,04,19,09,06,13.60
2016,04,19,09,07,13.60
2016,04,19,09,08,13.60
2016,04,19,09,09,13.60
2016,04,19,09,10,13.60
2016,04,19,09,11,13.70
2016,04,19,09,12,13.70
2016,04,19,09,13,13.70
2016,04,19,09,14,13.70
2016,04,19,09,15,13.70
2016,04,19,09,16,13.70
2016,04,19,09,17,13.70
2016,04,19,09,18,13.60
2016,04,19,09,19,13.60
2016,04,19,09,20,13.60
2016,04,19,09,21,13.60
2016,04,19,09,22,13.60
2016,04,19,09,23,13.60
2016,04,19,09,24,13.50
2016,04,19,09,25,13.50
2016,04,19,09,26,13.50
2016,04,19,09,27,13.50
2016,04,19,09,28,13.60
2016,04,19,09,29,13.50
2016,04,19,09,30,13.50
2016,04,19,09,31,13.60
2016,04,19,09,32,13.60
2016,04,19,09,33,13.60
2016,04,19,09,34,13.60
2016,04,19,09,35,13.60
2016,04,19,09,36,13.60
2016,04,19,09,37,13.50
2016,04,19,09,38,13.50
2016,04,19,09,39,13.50
2016,04,19,09,40,13.60
2016,04,19,09,41,13.60
2016,04,19,09,42,13.60
2016,04,19,09,43,13.60
2016,04,19,09,44,13.60
2016,04,19,09,45,13.50
2016,04,19,09,46,13.50
2016,04,19,09,47,13.40
2016,04,19,09,48,13.40
2016,04,19,09,49,13.40
2016,04,19,09,50,13.40
2016,04,19,09,51,13.30
2016,04,19,09,52,13.30
2016,04,19,09,53,13.20
2016,04,19,09,54,13.20
2016,04,19,09,55,13.10
2016,04,19,09,56,13.10
2016,04,19,09,57,13.10
2016,04,19,09,58,13.00
2016,04,19,09,59,13.00
2016,04,19,10,00,13.10
2016,04,19,10,01,13.10
2016,04,19,10,02,13.10
2016,04,19,10,03,13.10
2016,04,19,10,04,13.00
2016,04,19,10,05,13.00
2016,04,19,10,06,13.00
2016,04,19,10,07,13.00
2016,04,19,10,08,12.90
2016,04,19,10,09,12.90
2016,04,19,10,10,13.00
2016,04,19,10,11,13.00
2016,04,19,10,12,13.00
2016,04,19,10,13,12.90
2016,04,19,10,14,13.00
2016,04,19,10,15,13.00
2016,04,19,10,16,13.00
2016,04,19,10,17,13.00
2016,04,19,10,18,13.10
2016,04,19,10,19,13.20
2016,04,19,10,20,13.20
2016,04,19,10,21,13.30
2016,04,19,10,22,13.30
2016,04,19,10,23,13.40
2016,04,19,10,24,13.40
2016,04,19,10,25,13.30
2016,04,19,10,26,13.30
2016,04,19,10,27,13.30
2016,04,19,10,28,13.30
2016,04,19,10,29,13.30
2016,04,19,10,30,13.30
2016,04,19,10,31,13.30
2016,04,19,10,32,13.30
2016,04,19,10,33,13.20
2016,04,19,10,34,13.20
2016,04,19,10,35,13.20
2016,04,19,10,36,13.20
2016,04,19,10,37,13.10
2016,04,19,10,38,13.10
2016,04,19,10,39,13.10
2016,04,19,10,40,13.20
2016,04,19,10,41,13.30
2016,04,19,10,42,13.30
2016,04,19,10,43,13.30
2016,04,19,10,44,13.40
2016,04,19,10,45,13.50
2016,04,19,10,46,13.60
2016,04,19,10,47,13.60
2016,04,19,10,48,13.70
2016,04,19,10,49,13.80
2016,04,19,10,50,13.90
2016,04,19,10,51,14.00
2016,04,19,10,52,14.10
2016,04,19,10,53,14.20
2016,04,19,10,54,14.30
2016,04,19,10,55,14.40
2016,04,19,10,56,14.50
2016,04,19,10,57,14.50
2016,04,19,10,58,14.60
2016,04,19,10,59,14.70
2016,04,19,11,00,14.80
2016,04,19,11,01,14.80
2016,04,19,11,02,14.90
2016,04,19,11,03,14.90
2016,04,19,11,04,14.90
2016,04,19,11,05,14.90
2016,04,19,11,06,14.90
2016,04,19,11,07,14.90
2016,04,19,11,08,14.90
2016,04,19,11,09,14.80
2016,04,19,11,10,14.80
2016,04,19,11,11,14.80
2016,04,19,11,12,14.70
2016,04,19,11,13,14.70
2016,04,19,11,14,14.70
2016,04,19,11,15,14.70
2016,04,19,11,16,14.60
2016,04,19,11,17,14.50
2016,04,19,11,18,14.50
2016,04,19,11,19,14.40
2016,04,19,11,20,14.40
2016,04,19,11,21,14.40
2016,04,19,11,22,14.40
2016,04,19,11,23,14.40
2016,04,19,11,24,14.40
2016,04,19,11,25,14.40
2016,04,19,11,26,14.40
2016,04,19,11,27,14.40
2016,04,19,11,28,14.30
2016,04,19,11,29,14.30
2016,04,19,11,30,14.30
2016,04,19,11,31,14.30
2016,04,19,11,32,14.30
2016,04,19,11,33,14.30
2016,04,19,11,34,14.20
2016,04,19,11,35,14.20
2016,04,19,11,36,14.10
2016,04,19,11,37,14.10
2016,04,19,11,38,14.00
2016,04,19,11,39,14.00
2016,04,19,11,40,14.10
2016,04,19,11,41,14.10
2016,04,19,11,42,14.10
2016,04,19,11,43,14.20
2016,04,19,11,44,14.20
2016,04,19,11,45,14.30
2016,04,19,11,46,14.30
2016,04,19,11,47,14.30
2016,04,19,11,48,14.30
2016,04,19,11,49,14.30
2016,04,19,11,50,14.30
2016,04,19,11,51,14.20
2016,04,19,11,52,14.20
2016,04,19,11,53,14.20
2016,04,19,11,54,14.20
2016,04,19,11,55,14.20
2016,04,19,11,56,14.20
2016,04,19,11,57,14.20
2016,04,19,11,58,14.20
2016,04,19,11,59,14.30
2016,04,19,12,00,14.30
2016,04,19,12,01,14.40
2016,04,19,12,02,14.40
2016,04,19,12,03,14.30
2016,04,19,12,04,14.40
2016,04,19,12,05,14.40
2016,04,19,12,06,14.50
2016,04,19,12,07,14.50
2016,04,19,12,08,14.40
2016,04,19,12,09,14.40
2016,04,19,12,10,14.30
2016,04,19,12,11,14.30
2016,04,19,12,12,14.20
2016,04,19,12,13,14.20
2016,04,19,12,14,14.20
2016,04,19,12,15,14.20
2016,04,19,12,16,14.20
2016,04,19,12,17,14.10
2016,04,19,12,18,14.10
2016,04,19,12,19,14.10
2016,04,19,12,20,14.10
2016,04,19,12,21,14.10
2016,04,19,12,22,14.20
2016,04,19,12,23,14.30
2016,04,19,12,24,14.30
2016,04,19,12,25,14.30
2016,04,19,12,26,14.40
2016,04,19,12,27,14.40
2016,04,19,12,28,14.40
2016,04,19,12,29,14.40
2016,04,19,12,30,14.50
2016,04,19,12,31,14.50
2016,04,19,12,32,14.60
2016,04,19,12,33,14.60
2016,04,19,12,34,14.70
2016,04,19,12,35,14.70
2016,04,19,12,36,14.70
2016,04,19,12,37,14.70
2016,04,19,12,38,14.70
2016,04,19,12,39,14.80
2016,04,19,12,40,14.80
2016,04,19,12,41,14.80
2016,04,19,12,42,14.80
2016,04,19,12,43,14.80
2016,04,19,12,44,14.80
2016,04,19,12,45,14.90
2016,04,19,12,46,14.90
2016,04,19,12,47,14.90
2016,04,19,12,48,14.90
2016,04,19,12,49,14.90
2016,04,19,12,50,14.90
2016,04,19,12,51,14.90
2016,04,19,12,52,14.90
2016,04,19,12,53,15.00
2016,04,19,12,54,15.00
2016,04,19,12,55,15.00
2016,04,19,12,56,15.00
2016,04,19,12,57,15.00
2016,04,19,12,58,14.90
2016,04,19,12,59,14.90
2016,04,19,13,00,15.00
2016,04,19,13,01,15.00
2016,04,19,13,02,15.10
2016,04,19,13,03,15.10
2016,04,19,13,04,15.20
2016,04,19,13,05,15.30
2016,04,19,13,06,15.30
2016,04,19,13,07,15.30
2016,04,19,13,08,15.20
2016,04,19,13,09,15.20
2016,04,19,13,10,15.20
2016,04,19,13,11,15.10
2016,04,19,13,12,15.00
2016,04,19,13,13,15.00
2016,04,19,13,14,15.00
2016,04,19,13,15,15.10
2016,04,19,13,16,15.10
2016,04,19,13,17,15.20
2016,04,19,13,18,15.10
2016,04,19,13,19,15.10
2016,04,19,13,20,15.20
2016,04,19,13,21,15.20
2016,04,19,13,22,15.20
2016,04,19,13,23,15.30
2016,04,19,13,24,15.30
2016,04,19,13,25,15.40
2016,04,19,13,26,15.50
2016,04,19,13,27,15.60
2016,04,19,13,28,15.60
2016,04,19,13,29,15.70
2016,04,19,13,30,15.80
2016,04,19,13,31,15.80
2016,04,19,13,32,15.90
2016,04,19,13,33,16.00
2016,04,19,13,34,16.10
2016,04,19,13,35,16.10
2016,04,19,13,36,16.20
2016,04,19,13,37,16.20
2016,04,19,13,38,16.10
2016,04,19,13,39,16.10
2016,04,19,13,40,16.20
2016,04,19,13,41,16.20
2016,04,19,13,42,16.20
2016,04,19,13,43,16.30
2016,04,19,13,44,16.30
2016,04,19,13,45,16.30
2016,04,19,13,46,16.30
2016,04,19,13,47,16.30
2016,04,19,13,48,16.30
2016,04,19,13,49,16.30
2016,04,19,13,50,16.30
2016,04,19,13,51,16.30
2016,04,19,13,52,16.30
2016,04,19,13,53,16.30
2016,04,19,13,54,16.20
2016,04,19,13,55,16.20
2016,04,19,13,56,16.20
2016,04,19,13,57,16.20
2016,04,19,13,58,16.30
2016,04,19,13,59,16.30
2016,04,19,14,00,16.40
2016,04,19,14,01,16.40
2016,04,19,14,02,16.40
2016,04,19,14,03,16.40
2016,04,19,14,04,16.40
2016,04,19,14,05,16.50
2016,04,19,14,06,16.50
2016,04,19,14,07,16.60
2016,04,19,14,08,16.60
2016,04,19,14,09,16.60
2016,04,19,14,10,16.60
2016,04,19,14,11,16.70
2016,04,19,14,12,16.70
2016,04,19,14,13,16.80
2016,04,19,14,14,16.90
2016,04,19,14,15,17.00
2016,04,19,14,16,17.10
2016,04,19,14,17,17.20
2016,04,19,14,18,17.30
2016,04,19,14,19,17.30
2016,04,19,14,20,17.40
2016,04,19,14,21,17.40
2016,04,19,14,22,17.50
2016,04,19,14,23,17.50
2016,04,19,14,24,17.50
2016,04,19,14,25,17.50
2016,04,19,14,26,17.50
2016,04,19,14,27,17.50
2016,04,19,14,28,17.40
2016,04,19,14,29,17.40
2016,04,19,14,30,17.40
2016,04,19,14,31,17.40
2016,04,19,14,32,17.40
2016,04,19,14,33,17.40
2016,04,19,14,34,17.40
2016,04,19,14,35,17.40
2016,04,19,14,36,17.40
2016,04,19,14,37,17.40
2016,04,19,14,38,17.40
2016,04,19,14,39,17.40
2016,04,19,14,40,17.30
2016,04,19,14,41,17.30
2016,04,19,14,42,17.40
2016,04,19,14,43,17.40
2016,04,19,14,44,17.40
2016,04,19,14,45,17.40
2016,04,19,14,46,17.40
2016,04,19,14,47,17.40
2016,04,19,14,48,17.40
2016,04,19,14,49,17.40
2016,04,19,14,50,17.50
2016,04,19,14,51,17.50
2016,04,19,14,52,17.60
2016,04,19,14,53,17.60
2016,04,19,14,54,17.60
2016,04,19,14,55,17.60
2016,04,19,14,56,17.70
2016,04,19,14,57,17.70
2016,04,19,14,58,17.70
2016,04,19,14,59,17.80
2016,04,19,15,00,17.80
2016,04,19,15,01,17.90
2016,04,19,15,02,17.90
2016,04,19,15,03,18.00
2016,04,19,15,04,18.00
2016,04,19,15,05,18.10
2016,04,19,15,06,18.10
2016,04,19,15,07,18.10
2016,04,19,15,08,18.20
2016,04,19,15,09,18.20
2016,04,19,15,10,18.30
2016,04,19,15,11,18.30
2016,04,19,15,12,18.40
2016,04,19,15,13,18.40
2016,04,19,15,14,18.40
2016,04,19,15,15,18.40
2016,04,19,15,16,18.40
2016,04,19,15,17,18.40
2016,04,19,15,18,18.40
2016,04,19,15,19,18.50
2016,04,19,15,20,18.50
2016,04,19,15,21,18.60
2016,04,19,15,22,18.60
2016,04,19,15,23,18.70
2016,04,19,15,24,18.70
2016,04,19,15,25,18.80
2016,04,19,15,26,18.80
2016,04,19,15,27,18.90
2016,04,19,15,28,18.90
2016,04,19,15,29,19.00
2016,04,19,15,30,19.00
2016,04,19,15,31,19.00
2016,04,19,15,32,19.00
2016,04,19,15,33,19.10
2016,04,19,15,34,19.10
2016,04,19,15,35,19.10
2016,04,19,15,36,19.20
2016,04,19,15,37,19.20
2016,04,19,15,38,19.20
2016,04,19,15,39,19.20
2016,04,19,15,40,19.20
2016,04,19,15,41,19.20
2016,04,19,15,42,19.20
2016,04,19,15,43,19.20
2016,04,19,15,44,19.30
2016,04,19,15,45,19.30
2016,04,19,15,46,19.30
2016,04,19,15,47,19.30
2016,04,19,15,48,19.30
2016,04,19,15,49,19.30
2016,04,19,15,50,19.30
2016,04,19,15,51,19.30
2016,04,19,15,52,19.30
2016,04,19,15,53,19.30
2016,04,19,15,54,19.30
2016,04,19,15,55,19.30
2016,04,19,15,56,19.30
2016,04,19,15,57,19.30
2016,04,19,15,58,19.30
2016,04,19,15,59,19.30
2016,04,19,16,00,19.30
2016,04,19,16,01,19.30
2016,04,19,16,02,19.40
2016,04,19,16,03,19.40
2016,04,19,16,04,19.40
2016,04,19,16,05,19.30
2016,04,19,16,06,19.30
2016,04,19,16,07,19.30
2016,04,19,16,08,19.30
2016,04,19,16,09,19.30
2016,04,19,16,10,19.30
2016,04,19,16,11,19.20
2016,04,19,16,12,19.20
2016,04,19,16,13,19.10
2016,04,19,16,14,19.10
2016,04,19,16,15,19.10
2016,04,19,16,16,19.10
2016,04,19,16,17,19.10
2016,04,19,16,18,19.10
2016,04,19,16,19,19.10
2016,04,19,16,20,19.10
2016,04,19,16,21,19.10
2016,04,19,16,22,19.10
2016,04,19,16,23,19.10
2016,04,19,16,24,19.10
2016,04,19,16,25,19.10
2016,04,19,16,26,19.10
2016,04,19,16,27,19.10
2016,04,19,16,28,19.10
2016,04,19,16,29,19.10
2016,04,19,16,30,19.10
2016,04,19,22,43,12.90
2016,04,19,22,44,12.90
2016,04,19,22,45,12.80
2016,04,19,22,46,12.80
2016,04,19,22,47,12.80
2016,04,19,22,48,12.80
2016,04,19,22,49,12.80
2016,04,19,22,50,12.70
2016,04,19,22,51,12.70
2016,04,19,22,52,12.70
2016,04,19,22,53,12.60
2016,04,19,22,54,12.60
2016,04,19,22,55,12.60
2016,04,19,22,56,12.60
2016,04,19,22,57,12.70
2016,04,19,22,58,12.80
2016,04,19,22,59,12.80
2016,04,19,23,00,12.80
2016,04,19,23,01,12.80
2016,04,19,23,02,12.80
2016,04,19,23,03,12.80
2016,04,19,23,04,12.70
2016,04,19,23,05,12.70
2016,04,19,23,06,12.70
2016,04,19,23,07,12.60
2016,04,19,23,08,12.60
2016,04,19,23,09,12.60
2016,04,19,23,10,12.60
2016,04,19,23,11,12.50
2016,04,19,23,12,12.50
2016,04,19,23,13,12.50
2016,04,19,23,14,12.50
2016,04,19,23,15,12.50
2016,04,19,23,16,12.50
2016,04,19,23,17,12.50
2016,04,19,23,18,12.50
2016,04,19,23,19,12.50
2016,04,19,23,20,12.50
2016,04,19,23,21,12.50
2016,04,19,23,22,12.50
2016,04,19,23,23,12.60
2016,04,19,23,24,12.60
2016,04,19,23,25,12.60
2016,04,19,23,26,12.50
2016,04,19,23,27,12.50
2016,04,19,23,28,12.50
2016,04,19,23,29,12.40
2016,04,19,23,30,12.40
2016,04,19,23,31,12.40
2016,04,19,23,32,12.40
2016,04,19,23,33,12.30
2016,04,19,23,34,12.30
2016,04,19,23,35,12.30
2016,04,19,23,36,12.30
2016,04,19,23,37,12.30
2016,04,19,23,38,12.20
2016,04,19,23,39,12.20
2016,04,19,23,40,12.20
2016,04,19,23,41,12.20
2016,04,19,23,42,12.20